Temp
11 9 10 10 9 10 9 8 8 7 8 9 7 7 9 8 7 6 7 8 8 8 8 7 7 7 6 6 5 5 6 6 6 5 5 5 6 6 6 6 6 6 6 7
10 11 11 10 9 10 9 9 8 8 8 9 7 8 8 6 7 8 8 8 8 8 8 7 7 6 5 6 6 6 6 6 6 6 6 5 5 5 5 5 5 5 5 5
11 12 11 10 10 10 9 9 9 9 7 6 6 8 9 8 7 8 8 9 9 9 8 7 7 6 7 6 6 6 6 6 6 6 5 5 4 4 4 4 4 5 4 5
11 11 11 11 11 9 9 9 8 7 7 9 6 11 8 8 8 7 8 9 10 9 9 8 7 7 6 6 5 5 5 5 5 5 5 4 4 4 4 4 4 4 3 3
13 11 11 11 11 9 10 8 7 7 7 6 7 8 9 6 9 8 8 10 10 10 9 9 8 7 7 6 7 6 5 5 5 4 4 4 4 4 4 4 3 3 3 3
10 10 10 11 10 9 8 8 6 5 6 8 7 7 10 9 9 9 9 10 11 10 9 9 8 8 7 7 6 6 5 5 4 4 4 3 3 3 2 2 2 2 2 2
9 10 10 10 10 9 7 7 9 10 8 10 6 7 10 9 8 8 9 9 9 10 10 9 8 8 8 7 6 6 5 4 4 3 3 2 2 2 1 1 1 1 1 1
9 11 10 9 10 10 7 8 8 10 8 8 5 8 10 8 7 9 8 9 9 9 9 9 8 7 7 7 7 6 5 3 3 2 2 1 1 1 1 1 0 -0 -0 -0
9 11 9 9 9 9 8 8 7 7 5 5 6 7 8 6 6 7 7 8 8 8 9 9 8 8 7 6 6 5 4 3 2 1 0 0 -0 -0 -0 -1 -1 -1 -2 -2
9 9 9 8 8 7 8 6 7 5 8 8 7 6 10 9 9 6 6 7 7 8 9 8 7 7 6 5 4 3 3 2 1 1 -0 -1 -1 -1 -2 -2 -2 -3 -3 -3
7 8 9 8 7 7 6 6 6 6 5 7 7 9 6 8 8 7 6 8 7 7 7 7 7 7 6 6 4 2 1 1 1 0 -1 -1 -2 -2 -3 -3 -3 -4 -4 -4
7 5 6 8 7 6 7 7 7 8 7 5 5 9 7 6 6 6 6 6 6 6 6 6 5 5 5 5 4 3 2 1 -0 -1 -2 -3 -3 -3 -4 -4 -4 -5 -5 -6
6 6 7 9 7 5 6 5 6 7 7 6 8 9 4 5 5 6 6 5 5 5 5 4 3 4 4 4 3 3 1 -1 -2 -3 -3 -4 -4 -5 -5 -5 -6 -6 -7 -7
9 5 8 10 11 8 6 6 6 8 5 8 8 9 11 8 6 5 5 5 4 4 3 2 2 4 3 3 1 -0 -2 -3 -3 -4 -4 -5 -5 -6 -6 -7 -7 -7 -7 -8
8 5 5 7 8 8 8 8 8 7 7 6 9 9 10 11 8 6 7 4 3 2 2 2 3 2 1 1 0 -2 -3 -4 -4 -5 -5 -6 -6 -6 -7 -7 -8 -8 -8 -8
4 5 4 6 6 6 6 6 7 7 8 8 9 8 10 6 4 4 4 2 1 1 1 1 -1 -1 -1 -1 -2 -3 -4 -5 -5 -6 -6 -7 -7 -7 -8 -8 -9 -9 -9 -9
3 4 4 7 6 5 7 8 7 5 5 7 7 8 7 2 2 2 1 1 0 -0 -1 -2 -2 -3 -3 -3 -4 -5 -6 -6 -6 -7 -7 -7 -7 -8 -9 -9 -9 -9 -9 -10
4 4 4 6 5 8 10 8 8 7 7 5 6 6 2 2 0 0 0 0 -1 -3 -3 -3 -4 -4 -5 -5 -5 -6 -7 -7 -7 -8 -8 -8 -9 -9 -9 -9 -10 -10 -10 -10
7 7 5 6 7 8 8 4 5 6 6 1 1 1 -0 0 0 -2 -2 -3 -4 -4 -4 -5 -5 -5 -6 -6 -7 -7 -8 -8 -8 -8 -9 -9 -10 -10 -10 -10 -10 -11 -11 -11
2 5 5 5 6 7 7 4 4 3 6 0 -0 0 -0 -1 2 -2 -4 -4 -4 -5 -6 -6 -6 -7 -8 -8 -9 -9 -9 -9 -9 -9 -10 -10 -10 -10 -11 -11 -11 -11 -11 -11
4 3 5 5 6 6 2 2 3 5 3 -2 -3 -3 -3 -2 -5 -5 -5 -5 -6 -6 -7 -7 -8 -9 -9 -9 -9 -10 -10 -10 -10 -10 -10 -11 -11 -11 -11 -11 -11 -12 -12 -12
6 5 3 3 5 5 -3 1 3 -4 -3 -5 -5 -6 -6 -6 -6 -6 -6 -6 -7 -7 -8 -9 -9 -9 -10 -10 -10 -10 -10 -11 -11 -11 -11 -11 -11 -12 -12 -12 -12 -12 -12 -12
6 6 6 5 2 -4 -6 -6 -7 -7 -7 -8 -7 -7 -7 -7 -7 -7 -7 -8 -8 -8 -9 -9 -10 -10 -10 -11 -11 -11 -11 -11 -11 -12 -12 -12 -12 -12 -12 -12 -12 -13 -13 -13
3 -3 4 3 -6 -6 -8 -8 -8 -8 -8 -8 -8 -9 -8 -8 -8 -8 -9 -9 -9 -10 -10 -10 -10 -11 -11 -11 -12 -12 -12 -12 -12 -12 -12 -12 -12 -13 -13 -13 -13 -13 -13 -13
-6 -5 -5 -2 -7 -7 -7 -9 -9 -9 -9 -9 -9 -10 -10 -10 -10 -10 -10 -10 -11 -11 -11 -11 -12 -12 -12 -12 -12 -12 -12 -12 -12 -13 -13 -13 -13 -13 -13 -13 -14 -14 -13 -14
-9 -9 -8 -7 -9 -10 -9 -10 -10 -10 -10 -11 -10 -10 -10 -11 -11 -11 -11 -11 -12 -12 -12 -12 -12 -12 -12 -12 -12 -12 -13 -13 -13 -13 -13 -13 -14 -14 -14 -14 -14 -14 -14 -15
Height
1538 1545 1550 1549 1549 1550 1551 1554 1554 1546 1539 1538 1533 1528 1517 1517 1518 1518 1518 1520 1521 1523 1525 1526 1525 1525 1526 1526 1526 1525 1523 1521 1518 1517 1514 1512 1511 1510 1509 1507 1505 1504 1502 1501
1544 1548 1546 1547 1548 1549 1551 1552 1551 1543 1539 1539 1532 1519 1513 1512 1512 1512 1513 1514 1516 1519 1521 1523 1524 1526 1526 1525 1524 1523 1522 1520 1519 1517 1515 1513 1511 1510 1509 1507 1506 1504 1502 1500
1546 1546 1545 1546 1547 1549 1549 1549 1547 1548 1542 1539 1538 1520 1511 1510 1511 1510 1511 1513 1514 1515 1518 1520 1521 1520 1520 1520 1519 1520 1521 1521 1519 1517 1515 1513 1512 1510 1509 1508 1506 1504 1502 1500
1545 1544 1545 1545 1546 1549 1550 1545 1546 1547 1546 1541 1539 1528 1513 1510 1509 1508 1508 1509 1511 1513 1515 1517 1519 1520 1520 1519 1521 1521 1520 1518 1516 1515 1514 1514 1512 1511 1508 1507 1505 1504 1502 1501
1543 1544 1544 1545 1544 1546 1545 1544 1545 1545 1547 1549 1541 1540 1511 1515 1510 1506 1505 1505 1506 1508 1510 1513 1515 1516 1517 1517 1514 1514 1514 1514 1514 1514 1513 1512 1511 1509 1506 1505 1504 1503 1502 1500
1544 1544 1543 1542 1543 1544 1542 1542 1545 1550 1550 1545 1541 1541 1511 1511 1505 1501 1501 1503 1505 1507 1510 1512 1512 1512 1512 1512 1512 1511 1511 1511 1511 1510 1510 1509 1508 1507 1505 1503 1502 1501 1501 1499
1547 1543 1543 1543 1543 1544 1545 1546 1546 1543 1545 1534 1545 1541 1507 1500 1499 1500 1500 1500 1502 1504 1506 1507 1508 1509 1510 1510 1509 1508 1508 1509 1509 1508 1507 1507 1506 1505 1504 1503 1500 1499 1499 1498
1555 1550 1543 1543 1543 1546 1550 1550 1555 1551 1550 1542 1547 1530 1501 1497 1496 1495 1496 1496 1497 1500 1502 1504 1506 1507 1506 1506 1505 1504 1504 1506 1506 1505 1504 1504 1504 1502 1501 1501 1500 1499 1498 1496
1554 1546 1543 1543 1543 1544 1549 1551 1552 1553 1561 1560 1534 1520 1501 1495 1495 1495 1496 1497 1498 1499 1500 1500 1502 1502 1503 1503 1503 1502 1501 1501 1502 1502 1502 1501 1500 1500 1498 1497 1496 1496 1496 1495
1547 1551 1542 1543 1544 1546 1546 1550 1553 1560 1549 1543 1525 1525 1502 1493 1491 1492 1493 1494 1495 1495 1496 1497 1497 1498 1498 1499 1499 1498 1497 1496 1496 1498 1498 1498 1497 1496 1496 1495 1494 1492 1493 1492
1547 1550 1544 1544 1543 1542 1550 1551 1554 1555 1556 1543 1537 1503 1493 1489 1486 1487 1489 1490 1492 1492 1492 1495 1495 1495 1494 1493 1493 1493 1493 1493 1492 1493 1494 1494 1494 1493 1493 1491 1491 1490 1488 1487
1543 1551 1551 1537 1535 1536 1538 1539 1541 1541 1540 1547 1543 1497 1485 1486 1487 1487 1488 1489 1490 1491 1491 1491 1491 1491 1490 1489 1489 1489 1488 1488 1488 1489 1490 1491 1491 1490 1491 1489 1488 1485 1483 1481
1541 1547 1548 1533 1535 1538 1537 1536 1531 1530 1532 1527 1523 1496 1486 1487 1486 1484 1485 1487 1487 1487 1487 1489 1488 1487 1487 1488 1486 1485 1484 1485 1486 1487 1488 1488 1489 1489 1488 1487 1485 1482 1479 1476
1533 1541 1534 1528 1517 1522 1531 1530 1527 1524 1531 1508 1504 1487 1476 1481 1485 1483 1483 1483 1484 1485 1485 1486 1485 1484 1484 1482 1481 1480 1480 1482 1483 1484 1485 1486 1486 1486 1484 1483 1480 1478 1475 1473
1534 1540 1536 1523 1520 1519 1514 1515 1512 1517 1506 1512 1487 1486 1474 1464 1472 1472 1473 1477 1481 1482 1482 1482 1481 1481 1481 1479 1477 1477 1477 1479 1480 1481 1482 1483 1482 1481 1480 1478 1476 1475 1473 1470
1536 1533 1532 1516 1516 1515 1508 1506 1500 1495 1489 1492 1482 1476 1463 1468 1467 1467 1469 1472 1476 1477 1478 1477 1477 1477 1477 1475 1474 1474 1475 1476 1477 1478 1478 1479 1478 1477 1476 1474 1473 1471 1469 1468
1532 1532 1529 1508 1509 1513 1501 1482 1484 1488 1486 1481 1479 1465 1463 1465 1467 1468 1470 1471 1473 1475 1474 1475 1475 1474 1473 1473 1473 1473 1473 1474 1474 1474 1474 1474 1473 1472 1472 1472 1470 1468 1466 1465
1521 1525 1524 1512 1512 1500 1470 1474 1474 1476 1470 1475 1470 1466 1470 1469 1469 1470 1472 1472 1472 1473 1473 1473 1472 1471 1471 1471 1471 1471 1471 1471 1472 1471 1470 1469 1469 1467 1468 1468 1467 1464 1463 1462
1505 1508 1511 1505 1496 1480 1469 1478 1479 1479 1475 1481 1479 1474 1472 1472 1472 1471 1473 1474 1477 1476 1474 1471 1471 1469 1469 1470 1470 1470 1470 1469 1469 1467 1466 1465 1465 1464 1464 1463 1463 1461 1459 1458
1504 1504 1506 1500 1496 1486 1475 1479 1479 1479 1469 1480 1480 1477 1475 1474 1469 1474 1473 1474 1474 1475 1474 1471 1470 1469 1468 1468 1468 1468 1466 1465 1465 1464 1462 1462 1461 1460 1459 1459 1458 1457 1455 1454
1504 1506 1500 1496 1489 1481 1485 1482 1481 1478 1482 1485 1484 1483 1479 1478 1481 1480 1476 1474 1473 1472 1473 1471 1468 1469 1466 1466 1466 1466 1465 1463 1462 1461 1460 1459 1457 1456 1456 1454 1453 1452 1451 1450
1492 1495 1500 1495 1485 1479 1494 1486 1486 1500 1493 1489 1488 1486 1483 1482 1479 1476 1475 1473 1473 1471 1472 1470 1467 1468 1465 1463 1463 1464 1462 1460 1458 1458 1457 1455 1453 1452 1451 1449 1448 1447 1446 1445
1488 1486 1484 1489 1492 1505 1504 1504 1504 1501 1498 1492 1491 1489 1486 1483 1479 1477 1475 1474 1472 1472 1471 1469 1467 1465 1464 1462 1461 1460 1458 1456 1455 1454 1452 1450 1449 1448 1446 1445 1443 1442 1441 1440
1488 1492 1485 1489 1508 1508 1505 1502 1505 1504 1496 1493 1492 1489 1487 1483 1480 1478 1476 1473 1472 1471 1469 1467 1464 1462 1462 1460 1458 1457 1454 1452 1450 1448 1447 1445 1443 1442 1441 1440 1438 1437 1436 1435
1509 1503 1504 1497 1504 1504 1502 1506 1506 1501 1498 1495 1492 1490 1487 1484 1482 1480 1477 1474 1472 1470 1467 1464 1461 1459 1457 1456 1455 1452 1450 1447 1445 1443 1441 1439 1437 1436 1435 1434 1433 1432 1431 1430
1516 1518 1517 1512 1517 1517 1511 1508 1505 1501 1498 1496 1493 1489 1487 1484 1482 1479 1476 1473 1470 1466 1464 1461 1459 1456 1453 1451 1449 1447 1445 1442 1439 1436 1435 1433 1431 1430 1428 1427 1427 1426 1425 1425
Wind_Speed
6 6 2 1 1 1 2 3 5 5 4 5 4 9 16 13 14 18 20 20 19 18 14 13 10 8 6 6 8 9 9 10 10 9 7 5 7 8 9 9 8 8 8 9
5 2 2 1 2 2 3 3 5 5 3 2 7 18 13 8 5 9 13 17 18 17 15 13 10 8 6 5 6 7 8 9 10 10 10 9 9 9 10 11 11 11 11 11
4 2 0 1 0 4 2 3 3 5 6 2 7 7 4 1 3 6 8 8 13 14 13 11 10 9 7 6 5 6 7 9 9 9 8 7 7 7 7 7 9 10 11 12
2 1 1 1 1 3 4 3 2 5 4 3 4 5 5 3 5 4 9 10 11 12 12 11 10 8 8 6 6 7 8 8 7 7 7 7 6 6 7 8 10 11 11 11
2 2 1 1 1 3 7 1 3 1 1 3 2 1 6 4 5 7 12 13 12 12 11 10 8 8 7 7 5 6 6 7 8 8 8 8 8 7 7 8 8 9 10 11
2 1 2 1 1 3 5 2 2 2 1 1 1 2 5 3 5 3 4 9 11 13 11 11 10 10 8 8 7 6 8 8 8 9 9 8 8 8 7 7 6 7 8 9
5 1 1 1 2 1 6 4 4 5 3 4 1 1 9 5 5 4 6 5 4 8 13 14 13 12 10 10 10 10 10 10 9 9 9 9 8 8 8 8 7 7 7 8
2 5 3 1 1 1 3 2 3 5 3 4 3 6 5 4 4 8 6 5 5 6 8 10 12 15 15 14 14 13 13 12 11 9 9 10 9 9 9 9 9 8 8 8
2 4 1 1 2 2 2 2 2 1 1 2 4 6 9 4 7 6 9 7 6 5 4 4 8 12 16 18 16 15 15 13 12 11 11 10 9 9 9 9 9 9 10 11
4 4 2 1 2 4 2 5 2 1 4 6 5 4 7 4 5 7 9 13 11 7 3 3 5 9 13 16 18 19 17 14 13 13 12 10 9 9 10 10 11 12 15 17
4 2 3 1 6 8 2 1 2 1 4 4 4 6 7 7 6 8 13 15 11 7 4 5 6 7 9 12 16 18 18 16 14 15 12 11 10 9 10 12 14 16 18 19
5 4 4 10 1 2 3 7 6 3 5 4 2 12 2 5 5 6 11 13 9 5 5 6 7 7 8 8 10 14 17 17 16 14 12 11 10 9 11 14 17 18 18 18
6 2 4 7 1 3 5 5 6 1 3 10 7 9 0 2 4 8 14 14 10 8 6 5 5 7 10 12 12 14 16 16 15 13 11 11 9 10 14 17 19 19 16 15
11 4 7 10 13 3 4 6 7 10 4 10 14 25 24 10 8 12 16 15 11 8 6 4 5 9 12 13 13 13 13 14 14 12 11 10 10 12 17 18 17 16 16 14
2 5 6 14 17 16 20 19 17 14 23 11 26 23 26 24 9 19 25 17 12 9 5 4 7 10 14 14 11 10 12 13 13 12 11 11 12 16 18 17 16 14 14 13
2 4 2 12 13 15 20 16 19 23 26 21 28 28 30 16 6 8 14 17 13 7 4 6 9 10 11 10 8 7 10 12 11 11 11 12 15 18 17 16 14 12 12 12
8 4 3 10 3 6 11 13 12 5 5 7 8 16 9 4 5 9 12 9 6 5 6 7 9 9 8 7 5 6 9 10 11 12 12 14 17 16 15 14 13 12 11 11
8 5 3 5 1 7 3 1 6 11 8 9 14 12 4 2 6 6 5 5 5 4 5 7 8 7 7 5 5 7 9 11 12 13 15 16 15 13 13 14 13 12 12 11
17 10 4 4 6 8 12 4 3 3 5 7 8 4 3 3 1 2 2 1 2 5 7 8 7 6 6 5 6 8 10 12 14 14 14 13 12 13 13 13 13 12 12 12
2 7 4 3 4 5 0 2 3 4 7 10 12 6 6 6 2 2 1 2 7 8 9 8 8 7 6 7 8 10 11 12 11 11 11 13 13 13 14 14 14 14 14 15
3 2 8 8 6 6 6 7 3 4 4 14 13 12 13 3 4 9 9 9 8 8 9 9 8 8 7 7 7 8 9 10 11 12 13 14 14 15 15 16 15 16 16 15
2 3 4 2 4 5 24 5 3 10 11 15 15 16 14 11 11 11 11 10 9 9 10 10 9 9 9 8 9 10 10 11 12 13 14 15 15 16 17 18 17 16 16 15
4 3 2 2 2 10 18 15 15 16 10 17 16 17 16 14 14 12 11 10 10 11 10 10 11 11 11 11 12 13 12 13 14 16 17 17 18 18 18 18 17 16 16 15
3 15 2 2 9 9 22 22 19 17 18 17 16 15 15 15 14 13 11 11 11 11 11 12 12 13 14 14 15 16 16 17 18 19 20 19 19 18 19 18 17 17 16 15
4 10 8 1 9 3 20 24 21 20 18 18 17 18 18 17 16 15 14 13 13 13 14 15 16 16 16 17 18 18 19 21 22 22 21 20 20 19 19 18 18 18 17 16
10 5 3 2 11 8 9 16 21 20 20 19 20 19 18 18 17 16 16 16 16 17 17 18 18 19 20 21 22 22 21 23 23 23 22 20 21 20 20 19 19 17 18 15
Wind_Direction
19 61 44 264 177 137 210 227 250 258 275 309 246 266 277 265 248 252 249 239 241 245 245 253 259 264 295 333 350 356 7 17 26 30 28 17 11 9 359 359 357 346 334 332
23 70 222 192 163 239 238 269 279 278 274 254 304 288 276 254 235 238 241 232 233 238 240 245 253 264 291 321 327 340 352 1 11 14 19 23 28 24 20 16 13 10 8 3
135 162 106 171 214 4 283 220 278 263 320 255 308 289 326 91 251 243 242 234 226 232 238 241 245 246 255 279 306 331 345 353 359 3 7 7 4 0 1 1 3 4 355 353
194 151 93 126 281 111 309 195 275 289 358 297 18 288 302 300 275 244 232 222 217 221 229 234 243 252 256 273 311 333 335 338 341 345 349 347 343 341 347 355 357 354 350 345
275 178 134 226 203 158 244 342 253 218 202 359 347 3 271 0 276 249 237 226 218 217 220 225 234 244 252 263 270 293 308 317 328 334 334 333 330 331 343 348 346 343 344 343
264 284 182 208 216 191 305 351 71 59 99 338 189 132 272 219 226 256 213 219 225 218 218 223 230 237 250 260 268 281 294 303 313 315 315 316 320 328 333 327 329 331 336 339
338 242 248 213 12 45 17 18 335 348 3 241 234 242 253 248 226 225 199 182 200 214 218 228 236 242 250 261 268 274 279 288 294 295 301 305 307 312 312 315 323 328 331 334
45 323 174 165 104 191 50 120 145 291 292 285 314 233 248 216 221 215 198 182 188 199 215 240 251 252 254 257 263 265 269 275 279 289 295 296 298 303 310 315 319 320 327 337
143 277 121 74 153 129 155 179 146 208 241 334 241 283 286 221 249 240 225 206 182 182 198 249 260 258 256 257 263 265 266 269 277 281 281 285 295 300 302 299 299 304 313 320
190 295 183 148 113 36 170 156 84 34 299 288 265 272 245 271 249 220 216 203 192 179 182 238 265 266 261 257 257 258 259 260 261 266 272 280 286 290 291 292 292 295 303 308
143 137 280 209 199 180 132 227 77 142 182 225 284 263 213 225 225 202 212 198 189 180 194 251 271 277 270 258 252 254 255 258 261 260 265 269 274 283 286 291 298 302 303 305
199 156 243 233 154 139 178 198 166 171 226 239 240 271 316 236 265 241 208 187 186 200 236 257 275 296 306 296 277 270 264 257 254 252 256 262 267 278 290 299 300 301 300 300
185 203 319 321 50 23 212 206 217 266 44 234 259 266 72 300 249 221 194 197 201 213 230 250 286 322 329 314 298 276 259 250 246 249 251 255 269 287 296 299 300 300 299 298
162 193 198 251 261 141 198 210 216 211 217 262 239 270 277 248 231 219 214 211 214 221 229 264 325 324 308 304 287 267 251 243 242 242 248 260 271 291 303 303 303 298 296 296
168 246 241 251 269 278 274 267 252 222 243 242 267 271 273 280 245 230 225 205 209 214 235 299 317 320 313 304 293 263 241 237 240 245 253 260 276 301 304 301 297 295 292 292
163 254 273 278 242 242 267 266 256 246 252 256 254 263 270 303 224 194 198 190 194 201 236 296 313 315 312 308 292 259 242 239 241 248 254 269 293 300 299 297 296 294 292 288
160 218 203 268 135 323 274 250 232 239 223 219 240 253 298 216 197 174 175 180 191 227 281 306 315 319 320 310 281 246 239 241 246 255 268 283 294 295 295 294 294 295 292 286
184 207 209 283 59 265 265 246 201 211 248 216 263 277 19 62 126 141 155 212 229 243 282 306 319 326 325 310 279 253 245 249 255 266 279 287 290 290 293 293 292 292 288 286
216 228 228 229 220 284 306 25 51 36 315 15 329 358 77 99 136 56 358 319 276 303 312 322 324 320 303 289 270 258 256 261 272 279 284 285 288 291 291 290 289 285 280 283
92 220 206 192 245 246 213 100 106 111 264 3 356 351 347 331 267 51 41 306 313 320 325 328 321 311 300 285 277 272 269 271 276 279 280 283 286 286 285 284 282 281 284 287
167 178 223 242 257 267 14 354 328 254 349 2 14 9 13 29 21 328 323 324 323 328 326 322 326 314 313 306 298 287 283 283 283 281 282 283 285 286 285 283 282 283 284 283
220 212 215 235 233 257 358 314 346 335 340 12 10 6 359 354 355 353 343 338 333 334 326 324 325 316 315 306 299 289 286 285 284 283 284 286 288 286 285 284 282 281 280 280
248 236 285 234 48 49 46 57 27 19 18 14 4 357 357 356 1 358 353 343 335 326 320 318 314 312 308 303 299 295 293 290 290 291 289 289 288 286 283 281 277 274 275 275
75 16 339 258 37 75 51 33 22 10 17 7 2 357 358 2 356 350 343 337 326 316 310 311 312 311 307 302 299 295 295 296 294 291 290 289 287 285 281 277 274 273 272 271
349 343 345 19 22 351 18 9 5 4 8 8 7 1 356 352 348 342 336 329 323 318 314 313 310 307 305 302 299 299 297 294 292 290 288 287 287 284 279 275 274 273 272 269
5 9 2 331 356 315 306 348 1 6 4 358 354 351 351 344 338 333 330 326 322 317 315 311 307 304 304 302 299 298 296 293 292 289 288 287 285 281 278 277 273 272 272 261